• In Österreich
  • Länderverzeichnis
  • Für 7 Tage
  • Wassertemperatur
  • Satellitenkarten
  • Wetterkarte
  • News
  • Widgets
  • user-avatar
    Anmelden

    Stündliche Wetter Uige

    Heute, 18 Juli, Mittwoch

    Zeit Temperatur Niederschläge Wind Luftdruck Luftfeuchtigkeit
    00:00 +22°C° 0 mm 1 m/S 693 mmHg 49%
    01:00 +21°C° 0 mm 1 m/S 693 mmHg 51%
    02:00 +20°C° 0 mm 1 m/S 693 mmHg 52%
    03:00 +20°C° 0 mm 1 m/S 693 mmHg 53%
    04:00 +19°C° 0 mm 1 m/S 692 mmHg 54%
    05:00 +20°C° 0 mm 1 m/S 693 mmHg 53%
    06:00 +20°C° 0 mm 1 m/S 693 mmHg 51%
    07:00 +21°C° 0 mm 1 m/S 693 mmHg 50%
    08:00 +24°C° 0 mm 2 m/S 694 mmHg 41%
    09:00 +27°C° 0 mm 2 m/S 694 mmHg 32%
    10:00 +31°C° 0 mm 3 m/S 695 mmHg 23%
    11:00 +33°C° 0 mm 3 m/S 694 mmHg 21%
    12:00 +35°C° 0 mm 2 m/S 694 mmHg 19%
    13:00 +36°C° 0 mm 2 m/S 694 mmHg 16%
    14:00 +36°C° 0 mm 2 m/S 693 mmHg 16%
    15:00 +36°C° 0 mm 2 m/S 693 mmHg 16%
    16:00 +35°C° 0 mm 1 m/S 692 mmHg 15%
    17:00 +32°C° 0 mm 1 m/S 692 mmHg 19%
    18:00 +30°C° 0 mm 1 m/S 692 mmHg 22%
    19:00 +27°C° 0 mm 1 m/S 692 mmHg 26%
    20:00 +25°C° 0 mm 1 m/S 692 mmHg 31%
    21:00 +24°C° 0 mm 1 m/S 693 mmHg 36%
    22:00 +23°C° 0 mm 1 m/S 693 mmHg 40%
    23:00 +22°C° 0 mm 1 m/S 693 mmHg 47%

    Morgen, 19 Juli, Donnerstag

    Zeit Temperatur Niederschläge Wind Luftdruck Luftfeuchtigkeit
    00:00 +21°C° 0 mm 1 m/S 693 mmHg 54%
    01:00 +20°C° 0 mm 1 m/S 692 mmHg 60%
    02:00 +20°C° 0 mm 1 m/S 692 mmHg 64%
    03:00 +19°C° 0 mm 1 m/S 692 mmHg 69%
    04:00 +19°C° 0 mm 1 m/S 692 mmHg 73%
    05:00 +19°C° 0 mm 1 m/S 692 mmHg 69%
    06:00 +19°C° 0 mm 1 m/S 692 mmHg 65%
    07:00 +20°C° 0 mm 1 m/S 692 mmHg 62%
    08:00 +23°C° 0 mm 1 m/S 693 mmHg 48%
    09:00 +27°C° 0 mm 2 m/S 694 mmHg 35%
    10:00 +31°C° 0 mm 3 m/S 694 mmHg 22%
    11:00 +34°C° 0 mm 2 m/S 694 mmHg 19%
    12:00 +36°C° 0 mm 2 m/S 694 mmHg 17%
    13:00 +37°C° 0 mm 1 m/S 693 mmHg 14%
    14:00 +37°C° 0 mm 1 m/S 693 mmHg 14%
    15:00 +37°C° 0 mm 1 m/S 692 mmHg 14%
    16:00 +37°C° 0 mm 1 m/S 691 mmHg 14%
    17:00 +34°C° 0 mm 1 m/S 691 mmHg 18%
    18:00 +30°C° 0 mm 1 m/S 691 mmHg 23%
    19:00 +27°C° 0 mm 1 m/S 691 mmHg 27%
    20:00 +26°C° 0 mm 1 m/S 691 mmHg 36%
    21:00 +24°C° 0 mm 1 m/S 692 mmHg 46%
    22:00 +23°C° 0 mm 1 m/S 692 mmHg 55%
    23:00 +22°C° 0 mm 1 m/S 692 mmHg 65%

    übermorgen, 20 Juli, Freitag

    Zeit Temperatur Niederschläge Wind Luftdruck Luftfeuchtigkeit
    00:00 +21°C° 0 mm 1 m/S 692 mmHg 74%
    01:00 +20°C° 0 mm 1 m/S 692 mmHg 84%
    02:00 +19°C° 0 mm 1 m/S 692 mmHg 87%
    03:00 +19°C° 0 mm 1 m/S 691 mmHg 90%
    04:00 +19°C° 0 mm 1 m/S 691 mmHg 93%
    05:00 +19°C° 0 mm 1 m/S 691 mmHg 91%
    06:00 +19°C° 0 mm 1 m/S 692 mmHg 89%
    07:00 +19°C° 0 mm 1 m/S 692 mmHg 87%
    08:00 +23°C° 0 mm 1 m/S 693 mmHg 68%
    09:00 +27°C° 0 mm 2 m/S 693 mmHg 49%
    10:00 +31°C° 0 mm 2 m/S 694 mmHg 29%
    11:00 +34°C° 0 mm 2 m/S 694 mmHg 24%
    12:00 +36°C° 0 mm 2 m/S 693 mmHg 19%
    13:00 +38°C° 0 mm 2 m/S 693 mmHg 14%
    14:00 +37°C° 0 mm 1 m/S 692 mmHg 14%
    15:00 +37°C° 0 mm 1 m/S 691 mmHg 14%
    16:00 +37°C° 0 mm 1 m/S 690 mmHg 14%
    17:00 +33°C° 0 mm 1 m/S 690 mmHg 17%
    18:00 +30°C° 0 mm 1 m/S 690 mmHg 21%
    19:00 +27°C° 0 mm 1 m/S 690 mmHg 25%
    20:00 +26°C° 0 mm 1 m/S 691 mmHg 31%
    21:00 +25°C° 0 mm 1 m/S 691 mmHg 38%
    22:00 +23°C° 0 mm 1 m/S 692 mmHg 45%
    23:00 +22°C° 0 mm 1 m/S 692 mmHg 55%

    21 Juli, Samstag

    Zeit Temperatur Niederschläge Wind Luftdruck Luftfeuchtigkeit
    00:00 +21°C° 0 mm 1 m/S 692 mmHg 65%
    01:00 +20°C° 0 mm 1 m/S 692 mmHg 76%
    02:00 +19°C° 0 mm 1 m/S 691 mmHg 81%
    03:00 +19°C° 0 mm 1 m/S 691 mmHg 87%
    04:00 +16°C° 0 mm 0 m/S 691 mmHg 92%
    05:00 +16°C° 0 mm 0 m/S 691 mmHg 90%
    06:00 +17°C° 0 mm 0 m/S 692 mmHg 88%
    07:00 +17°C° 0 mm 0 m/S 692 mmHg 86%
    08:00 +23°C° 0 mm 1 m/S 693 mmHg 68%
    09:00 +27°C° 0 mm 1 m/S 694 mmHg 51%
    10:00 +31°C° 0 mm 1 m/S 695 mmHg 33%
    11:00 +33°C° 0 mm 1 m/S 694 mmHg 28%
    12:00 +36°C° 0 mm 1 m/S 694 mmHg 22%
    13:00 +39°C° 0 mm 1 m/S 693 mmHg 17%
    14:00 +37°C° 0 mm 1 m/S 693 mmHg 17%
    15:00 +37°C° 0 mm 1 m/S 692 mmHg 17%
    16:00 +37°C° 0 mm 2 m/S 691 mmHg 17%
    17:00 +34°C° 0 mm 2 m/S 692 mmHg 23%
    18:00 +30°C° 0 mm 2 m/S 692 mmHg 29%
    19:00 +27°C° 0 mm 2 m/S 692 mmHg 36%
    20:00 +26°C° 0 mm 2 m/S 693 mmHg 47%
    21:00 +24°C° 0 mm 2 m/S 693 mmHg 59%
    22:00 +21°C° 0 mm 2 m/S 694 mmHg 71%
    23:00 +21°C° 0 mm 2 m/S 693 mmHg 76%

    22 Juli, Sonntag

    Zeit Temperatur Niederschläge Wind Luftdruck Luftfeuchtigkeit
    00:00 +20°C° 0 mm 2 m/S 693 mmHg 82%
    01:00 +19°C° 0 mm 2 m/S 693 mmHg 87%
    02:00 +19°C° 0 mm 2 m/S 692 mmHg 87%
    03:00 +19°C° 0 mm 1 m/S 692 mmHg 87%
    04:00 +19°C° 0 mm 1 m/S 692 mmHg 87%
    05:00 +19°C° 0 mm 1 m/S 692 mmHg 87%
    06:00 +19°C° 0 mm 1 m/S 693 mmHg 87%
    07:00 +19°C° 0 mm 1 m/S 693 mmHg 87%
    08:00 +23°C° 0 mm 1 m/S 694 mmHg 70%
    09:00 +27°C° 0 mm 1 m/S 694 mmHg 53%
    10:00 +30°C° 0 mm 1 m/S 695 mmHg 36%
    11:00 +33°C° 0 mm 1 m/S 694 mmHg 30%
    12:00 +35°C° 0 mm 1 m/S 694 mmHg 24%
    13:00 +39°C° 0 mm 1 m/S 693 mmHg 18%
    14:00 +37°C° 0 mm 1 m/S 693 mmHg 17%
    15:00 +37°C° 0 mm 1 m/S 692 mmHg 16%
    16:00 +37°C° 0 mm 1 m/S 692 mmHg 16%
    17:00 +34°C° 0 mm 1 m/S 692 mmHg 20%
    18:00 +31°C° 0 mm 1 m/S 692 mmHg 25%
    19:00 +28°C° 0 mm 1 m/S 692 mmHg 29%
    20:00 +27°C° 0 mm 1 m/S 692 mmHg 37%
    21:00 +25°C° 0 mm 1 m/S 693 mmHg 44%
    22:00 +24°C° 0 mm 1 m/S 693 mmHg 52%
    23:00 +23°C° 0 mm 1 m/S 693 mmHg 61%

    23 Juli, Montag

    Zeit Temperatur Niederschläge Wind Luftdruck Luftfeuchtigkeit
    00:00 +22°C° 0 mm 1 m/S 693 mmHg 70%
    01:00 +21°C° 0 mm 1 m/S 692 mmHg 79%
    02:00 +20°C° 0 mm 1 m/S 692 mmHg 84%
    03:00 +19°C° 0 mm 1 m/S 692 mmHg 89%
    04:00 +18°C° 0 mm 1 m/S 691 mmHg 94%
    05:00 +19°C° 0 mm 1 m/S 692 mmHg 92%
    06:00 +19°C° 0 mm 1 m/S 692 mmHg 91%
    07:00 +19°C° 0 mm 1 m/S 693 mmHg 89%
    08:00 +23°C° 0 mm 1 m/S 693 mmHg 71%
    09:00 +27°C° 0 mm 1 m/S 694 mmHg 53%
    10:00 +31°C° 0 mm 1 m/S 694 mmHg 35%
    11:00 +33°C° 0 mm 1 m/S 694 mmHg 29%
    12:00 +36°C° 0 mm 1 m/S 693 mmHg 23%
    13:00 +39°C° 0 mm 1 m/S 693 mmHg 16%
    14:00 +39°C° 0 mm 1 m/S 692 mmHg 16%
    15:00 +39°C° 0 mm 1 m/S 691 mmHg 15%
    16:00 +37°C° 0 mm 1 m/S 691 mmHg 14%
    17:00 +34°C° 0 mm 1 m/S 691 mmHg 19%
    18:00 +31°C° 0 mm 1 m/S 691 mmHg 23%
    19:00 +28°C° 0 mm 1 m/S 691 mmHg 28%
    20:00 +27°C° 0 mm 2 m/S 692 mmHg 38%
    21:00 +25°C° 0 mm 2 m/S 692 mmHg 48%
    22:00 +24°C° 0 mm 2 m/S 693 mmHg 58%
    23:00 +23°C° 0 mm 2 m/S 693 mmHg 67%
    Mehr zeigen